Hourly Data Report for April 03, 2018

MIRAMICHI RCS
NEW BRUNSWICK
Current Station Operator: ECCC - MSC

47°00'34.000" N
65°27'54.000" W
33.00 m
8100989
71744
ACQ

Download Data

Hourly Data (April 2018)
Hourly Data Report for April 3, 2018
TIME
LST
Temp Definition
°C
Dew Point Definition
°C
Rel Hum Definition
%
Precip. Amount Definition
mm

Wind Dir Definition
10's deg

Wind Spd Definition
km/h
Visibility Definition
km
Stn Press Definition
kPa
Hmdx Definition


Wind Chill Definition


Weather Definition


00:00 -7.8 -10.1 83 0.0   0   101.60     LegendNANA
01:00 -8.0 -10.3 83 0.0 0 1   101.61   -9 LegendNANA
02:00 -8.1 -10.0 86 0.0 30 2   101.63   -9 LegendNANA
03:00 -8.7 -10.9 84 0.0 26 2   101.60   -10 LegendNANA
04:00 -9.3 -11.0 88 0.0 27 4   101.67   -12 LegendNANA
05:00 -9.8 -11.1 90 0.0 27 4   101.71   -12 LegendNANA
06:00 -11.0 -12.2 91 0.0   0   101.76     LegendNANA
07:00 -9.6 -11.5 86 0.0 24 2   101.78   -11 LegendNANA
08:00 -5.9 -10.4 71 0.0   0   101.82     LegendNANA
09:00 -1.4 -10.7 49 0.0   0   101.79     LegendNANA
10:00 0.2 -10.0 46 0.0 24 12   101.79     LegendNANA
11:00 1.8 -9.5 43 0.0 23 17   101.73     LegendNANA
12:00 3.4 -9.4 39 0.0 23 18   101.65     LegendNANA
13:00 3.7 -8.7 40 0.0 22 23   101.61     LegendNANA
14:00 4.5 -9.4 36 0.0 22 20   101.54     LegendNANA
15:00 4.7 -7.3 41 0.0 24 20   101.47     LegendNANA
16:00 4.3 -5.7 48 0.0 23 27   101.43     LegendNANA
17:00 4.8 -5.4 48 0.0 24 22   101.40     LegendNANA
18:00 5.0 -5.1 48 0.0 25 11   101.41     LegendNANA
19:00 3.5 -4.7 55 0.0 19 9   101.40     LegendNANA
20:00 2.7 -4.6 59 0.0 17 9   101.39     LegendNANA
21:00 3.2 -2.4 67 0.0 20 18   101.39     LegendNANA
22:00 2.1 -2.4 72 0.0 21 11   101.40     LegendNANA
23:00 1.8 -2.6 73 0.0 21 13   101.33     LegendNANA

Notes on Data Quality.

Legend

  • E = Estimated
  • M = Missing
  • NA = Not Available*
  • [empty] = Indicates an unobserved value
Date modified: